Tetide — IVTN — position and weather

sailwx.info

Track history (hours):
 
Tides and Currents Weather Stations Pressure Air Temp Water Temp Dewpoint Dewpoint Depression Visibility Wind Speed Wind Dir Waves Ship Positions

Tetide

Last reported at 2016-Aug-31 02:15 UTC. Time now 2016-Aug-31 14:16 UTC.
Position N 41°15' E 013°37'.

Length 70 m; draft 3.6 m.

Type: Passenger vessel. MMSI: 247043100.

Date/timePositionNaut miles runAvg speedWind from/ knotsBaromVisibWave heightAir tempDewpointWater temp
2016-Aug-31 02:15N 41°15' E 013°37'0 0.0
2016-Aug-31 01:18N 41°15' E 013°37'0 0.0
2016-Aug-30 22:25N 41°15' E 013°37'0 0.0
2016-Aug-30 21:33N 41°15' E 013°37'0 0.0
2016-Aug-30 20:17N 41°15' E 013°37'0 0.0
2016-Aug-30 19:26N 41°15' E 013°37'0 0.0
2016-Aug-30 18:33N 41°15' E 013°37'1110.7
2016-Aug-30 17:33N 41°08' E 013°27'4 0.9
2016-Aug-30 13:04N 41°10' E 013°31'713.4
2016-Aug-30 12:33N 41°15' E 013°37'4 4.4
2016-Aug-30 11:33N 41°11' E 013°34'4 0.4
2016-Aug-30 00:33N 41°15' E 013°37'0 0.0
2016-Aug-29 23:31N 41°15' E 013°37'0 0.0
2016-Aug-29 21:33N 41°15' E 013°37'0 0.0
2016-Aug-29 20:32N 41°15' E 013°37'0 0.0
2016-Aug-29 18:28N 41°15' E 013°37'3 2.3
2016-Aug-29 17:21N 41°13' E 013°37'13 3.5
2016-Aug-29 13:31N 41°00' E 013°31'1414.5
2016-Aug-29 12:33N 41°13' E 013°37'26 1.2
2016-Aug-28 14:19N 40°49' E 013°26'1114.6
2016-Aug-28 13:33N 40°59' E 013°31'1414.4
2016-Aug-28 12:33N 41°13' E 013°36'2 1.6
2016-Aug-28 11:33N 41°12' E 013°35'4 0.2
2016-Aug-27 19:04N 41°15' E 013°37'0 0.0
2016-Aug-27 18:33N 41°15' E 013°37'0 0.3
2016-Aug-27 17:32N 41°15' E 013°37'2014.4
2016-Aug-27 16:09N 40°56' E 013°29'4 1.7
2016-Aug-27 13:33N 41°00' E 013°31'16 1.6
2016-Aug-27 03:33N 41°15' E 013°37'0 0.0
2016-Aug-27 02:33N 41°15' E 013°37'0 0.0
2016-Aug-26 23:30N 41°15' E 013°37'0 0.0
2016-Aug-26 21:32N 41°15' E 013°37'0 0.0
2016-Aug-26 20:33N 41°15' E 013°37'0 0.0
2016-Aug-26 19:33N 41°15' E 013°37'8 6.6
2016-Aug-26 18:24N 41°09' E 013°31'8 0.3
2016-Aug-25 18:15N 41°15' E 013°37'0 0.4
2016-Aug-25 17:32N 41°15' E 013°37'1414.2
2016-Aug-25 16:33N 41°02' E 013°32'  
2016-Aug-22 00:34N 41°15' E 013°37'0 0.0
2016-Aug-21 23:34N 41°15' E 013°37'0 0.0
2016-Aug-21 22:33N 41°15' E 013°37'0 0.0
2016-Aug-21 21:33N 41°15' E 013°37'0 0.0
2016-Aug-21 20:33N 41°15' E 013°37'0 0.0
2016-Aug-21 19:33N 41°15' E 013°37'0 0.0
2016-Aug-21 18:33N 41°15' E 013°37'2 1.8
2016-Aug-21 17:33N 41°14' E 013°37'1514.6
2016-Aug-21 16:33N 40°60' E 013°31'2 0.7
2016-Aug-21 14:18N 40°58' E 013°30'1114.3
2016-Aug-21 13:34N 41°08' E 013°34'7 7.5
2016-Aug-21 12:33N 41°15' E 013°37'6 5.9
2016-Aug-21 11:33N 41°10' E 013°33'1514.7
2016-Aug-21 10:33N 41°02' E 013°16'7 2.1
2016-Aug-21 07:05N 41°06' E 013°25'814.4
2016-Aug-21 06:33N 41°11' E 013°33'5 5.5
2016-Aug-21 05:34N 41°15' E 013°37'0 0.0
2016-Aug-21 04:33N 41°15' E 013°37'0 0.0
2016-Aug-21 03:33N 41°15' E 013°37'0 0.0
2016-Aug-21 02:33N 41°15' E 013°37'  
Track history (hours):
 
Tides and Currents Weather Stations Pressure Air Temp Water Temp Dewpoint Dewpoint Depression Visibility Wind Speed Wind Dir Waves Ship Positions

Tetide

Last reported at 2016-Aug-31 02:15 UTC. Time now 2016-Aug-31 14:16 UTC.
Position N 41°15' E 013°37'.

Length 70 m; draft 3.6 m.

Type: Passenger vessel. MMSI: 247043100.

Date/timePositionNaut miles runAvg speedWind from/ knotsBaromVisibWave heightAir tempDewpointWater temp
2016-Aug-31 02:15N 41°15' E 013°37'0 0.0
2016-Aug-31 01:18N 41°15' E 013°37'0 0.0
2016-Aug-30 22:25N 41°15' E 013°37'0 0.0
2016-Aug-30 21:33N 41°15' E 013°37'0 0.0
2016-Aug-30 20:17N 41°15' E 013°37'0 0.0
2016-Aug-30 19:26N 41°15' E 013°37'0 0.0
2016-Aug-30 18:33N 41°15' E 013°37'1110.7
2016-Aug-30 17:33N 41°08' E 013°27'4 0.9
2016-Aug-30 13:04N 41°10' E 013°31'713.4
2016-Aug-30 12:33N 41°15' E 013°37'4 4.4
2016-Aug-30 11:33N 41°11' E 013°34'4 0.4
2016-Aug-30 00:33N 41°15' E 013°37'0 0.0
2016-Aug-29 23:31N 41°15' E 013°37'0 0.0
2016-Aug-29 21:33N 41°15' E 013°37'0 0.0
2016-Aug-29 20:32N 41°15' E 013°37'0 0.0
2016-Aug-29 18:28N 41°15' E 013°37'3 2.3
2016-Aug-29 17:21N 41°13' E 013°37'13 3.5
2016-Aug-29 13:31N 41°00' E 013°31'1414.5
2016-Aug-29 12:33N 41°13' E 013°37'26 1.2
2016-Aug-28 14:19N 40°49' E 013°26'1114.6
2016-Aug-28 13:33N 40°59' E 013°31'1414.4
2016-Aug-28 12:33N 41°13' E 013°36'2 1.6
2016-Aug-28 11:33N 41°12' E 013°35'4 0.2
2016-Aug-27 19:04N 41°15' E 013°37'0 0.0
2016-Aug-27 18:33N 41°15' E 013°37'0 0.3
2016-Aug-27 17:32N 41°15' E 013°37'2014.4
2016-Aug-27 16:09N 40°56' E 013°29'4 1.7
2016-Aug-27 13:33N 41°00' E 013°31'16 1.6
2016-Aug-27 03:33N 41°15' E 013°37'0 0.0
2016-Aug-27 02:33N 41°15' E 013°37'0 0.0
2016-Aug-26 23:30N 41°15' E 013°37'0 0.0
2016-Aug-26 21:32N 41°15' E 013°37'0 0.0
2016-Aug-26 20:33N 41°15' E 013°37'0 0.0
2016-Aug-26 19:33N 41°15' E 013°37'8 6.6
2016-Aug-26 18:24N 41°09' E 013°31'8 0.3
2016-Aug-25 18:15N 41°15' E 013°37'0 0.4
2016-Aug-25 17:32N 41°15' E 013°37'1414.2
2016-Aug-25 16:33N 41°02' E 013°32'  
2016-Aug-22 00:34N 41°15' E 013°37'0 0.0
2016-Aug-21 23:34N 41°15' E 013°37'0 0.0
2016-Aug-21 22:33N 41°15' E 013°37'0 0.0
2016-Aug-21 21:33N 41°15' E 013°37'0 0.0
2016-Aug-21 20:33N 41°15' E 013°37'0 0.0
2016-Aug-21 19:33N 41°15' E 013°37'0 0.0
2016-Aug-21 18:33N 41°15' E 013°37'2 1.8
2016-Aug-21 17:33N 41°14' E 013°37'1514.6
2016-Aug-21 16:33N 40°60' E 013°31'2 0.7
2016-Aug-21 14:18N 40°58' E 013°30'1114.3
2016-Aug-21 13:34N 41°08' E 013°34'7 7.5
2016-Aug-21 12:33N 41°15' E 013°37'6 5.9
2016-Aug-21 11:33N 41°10' E 013°33'1514.7
2016-Aug-21 10:33N 41°02' E 013°16'7 2.1
2016-Aug-21 07:05N 41°06' E 013°25'814.4
2016-Aug-21 06:33N 41°11' E 013°33'5 5.5
2016-Aug-21 05:34N 41°15' E 013°37'0 0.0
2016-Aug-21 04:33N 41°15' E 013°37'0 0.0
2016-Aug-21 03:33N 41°15' E 013°37'0 0.0
2016-Aug-21 02:33N 41°15' E 013°37'  

Dump ship's entire track history